User: anonymous   Login
Location: Unspecified
(0.0000°N, 0.0000°E)
Time: 14:22:49
(UTC+00:00)
Language:

Aussat K1 - Orbit

View from above orbital plane
View from above orbital plane
View from above satellite
View from above satellite

Ground track
Ground track

The orbit data is extracted from the following two-line orbital elements,

1 15993U 85076B   15213.53430800  .00000053  00000-0  00000+0 0  9995
2 15993 015.0979 014.6849 0003183 202.9448 157.4142 00.99758073 79947
Epoch (UTC): 01 August 2015 12:49:24
Eccentricity: 0.0003183
inclination: 15.0979°
perigee height: 35917 km
apogee height: 35944 km
right ascension of ascending node: 14.6849°
argument of perigee: 202.9448°
revolutions per day: 0.99758073
mean anomaly at epoch: 157.4142°
orbit number at epoch: 7994

The dashed part of the orbit path shows where the satellite is in the earth's shadow,  

DLR